TimeEST,TemperatureF,Dew PointF,Humidity,Sea Level PressureIn,VisibilityMPH,Wind Direction,Wind SpeedMPH,Gust SpeedMPH,PrecipitationIn,Events,Conditions,WindDirDegrees,DateUTC
12:53 AM,45.0,26.1,48,30.01,10.0,NNW,5.8,-,N/A,,Clear,330,2012-01-08 05:53:00
1:53 AM,43.0,26.1,51,30.04,10.0,Calm,Calm,-,N/A,,Clear,0,2012-01-08 06:53:00
2:53 AM,41.0,25.0,53,30.06,10.0,Calm,Calm,-,N/A,,Clear,0,2012-01-08 07:53:00
3:53 AM,41.0,25.0,53,30.07,10.0,Calm,Calm,-,N/A,,Clear,0,2012-01-08 08:53:00
4:53 AM,42.8,24.8,49,30.10,10.0,NW,4.6,-,N/A,,Clear,310,2012-01-08 09:53:00
5:53 AM,39.9,25.0,55,30.11,10.0,West,3.5,-,N/A,,Clear,270,2012-01-08 10:53:00
6:53 AM,37.9,25.0,60,30.13,10.0,NW,3.5,-,N/A,,Clear,310,2012-01-08 11:53:00
7:53 AM,39.2,26.6,61,30.16,10.0,West,4.6,-,N/A,,Clear,280,2012-01-08 12:53:00
8:53 AM,42.1,26.1,53,30.19,10.0,NW,5.8,-,N/A,,Clear,310,2012-01-08 13:53:00
9:53 AM,43.0,27.0,53,30.21,10.0,NW,5.8,-,N/A,,Clear,320,2012-01-08 14:53:00
10:53 AM,45.0,28.0,52,30.21,10.0,NNW,8.1,-,N/A,,Clear,340,2012-01-08 15:53:00
11:53 AM,46.0,26.1,46,30.19,10.0,NW,9.2,-,N/A,,Clear,320,2012-01-08 16:53:00
12:53 PM,46.9,26.1,44,30.18,10.0,NNW,11.5,-,N/A,,Clear,340,2012-01-08 17:53:00
1:53 PM,48.0,27.0,44,30.17,10.0,NNW,6.9,18.4,N/A,,Partly Cloudy,330,2012-01-08 18:53:00
2:53 PM,48.0,26.1,42,30.19,10.0,NW,8.1,-,N/A,,Mostly Cloudy,320,2012-01-08 19:53:00
3:53 PM,48.0,25.0,41,30.20,10.0,North,11.5,-,N/A,,Mostly Cloudy,10,2012-01-08 20:53:00
4:53 PM,45.0,23.0,42,30.23,10.0,NNW,8.1,-,N/A,,Clear,340,2012-01-08 21:53:00
5:53 PM,41.0,23.0,49,30.26,10.0,North,3.5,-,N/A,,Clear,10,2012-01-08 22:53:00
6:53 PM,39.0,24.1,55,30.28,10.0,North,3.5,-,N/A,,Clear,360,2012-01-08 23:53:00
7:53 PM,37.0,24.1,59,30.29,10.0,North,5.8,-,N/A,,Clear,360,2012-01-09 00:53:00
8:53 PM,36.0,23.0,59,30.29,10.0,NE,4.6,-,N/A,,Clear,40,2012-01-09 01:53:00
9:53 PM,35.1,21.0,57,30.30,10.0,NNE,6.9,-,N/A,,Clear,20,2012-01-09 02:53:00
10:53 PM,33.8,19.4,56,30.33,10.0,NNE,5.8,-,N/A,,Clear,20,2012-01-09 03:53:00
11:53 PM,32.0,19.0,59,30.31,10.0,North,3.5,-,N/A,,Clear,10,2012-01-09 04:53:00